07-04-2023, 00:00:00,    317,    0.7,    4.2,   0.00,   0.00, 1015.5,   71.6, -999.0
07-04-2023, 00:00:10,    316,    0.0,    4.2,   0.00,   0.00, 1015.3,   71.3, -999.0
07-04-2023, 00:00:20,    313,    0.0,    4.3,   0.00,   0.00, 1015.4,   71.5, -999.0
07-04-2023, 00:00:30,    305,    1.2,    4.3,   0.00,   0.00, 1015.5,   71.6, -999.0
07-04-2023, 00:00:40,    305,    0.2,    4.3,   0.00,   0.00, 1015.4,   71.4, -999.0
07-04-2023, 00:00:50,    306,    0.0,    4.2,   0.00,   0.00, 1015.3,   71.1, -999.0
07-04-2023, 00:01:00,    345,    0.8,    4.3,   0.00,   0.00, 1015.4,   71.3, -999.0
07-04-2023, 00:01:10,    345,    0.8,    4.3,   0.00,   0.00, 1015.5,   71.4, -999.0
07-04-2023, 00:01:20,    345,    0.0,    4.3,   0.00,   0.00, 1015.4,   71.3, -999.0
07-04-2023, 00:01:30,    335,    2.0,    4.3,   0.00,   0.00, 1015.5,   71.4, -999.0
07-04-2023, 00:01:40,    335,    1.4,    4.3,   0.00,   0.00, 1015.5,   71.4, -999.0
07-04-2023, 00:01:50,    334,    0.2,    4.3,   0.00,   0.00, 1015.5,   71.3, -999.0
07-04-2023, 00:02:00,    335,    0.0,    4.2,   0.00,   0.00, 1015.4,   71.2, -999.0
07-04-2023, 00:02:10,    335,    0.0,    4.2,   0.00,   0.00, 1015.4,   71.1, -999.0
07-04-2023, 00:02:20,    283,    1.8,    4.2,   0.00,   0.00, 1015.5,   71.6, -999.0
07-04-2023, 00:02:29,    310,    2.4,    4.3,   0.00,   0.00, 1015.5,   71.4, -999.0
07-04-2023, 00:02:40,    312,    1.9,    4.3,   0.00,   0.00, 1015.5,   71.4, -999.0
07-04-2023, 00:02:50,    312,    1.1,    4.3,   0.00,   0.00, 1015.5,   71.5, -999.0
07-04-2023, 00:02:59,    311,    0.1,    4.3,   0.00,   0.00, 1015.4,   71.2, -999.0
07-04-2023, 00:03:10,    312,    0.0,    4.2,   0.00,   0.00, 1015.4,   71.2, -999.0
07-04-2023, 00:03:20,    312,    0.1,    4.2,   0.00,   0.00, 1015.5,   71.3, -999.0
07-04-2023, 00:03:30,    311,    0.1,    4.3,   0.00,   0.00, 1015.5,   71.4, -999.0
07-04-2023, 00:03:39,    305,    0.1,    4.2,   0.00,   0.00, 1015.4,   71.2, -999.0
07-04-2023, 00:03:50,    300,    0.5,    4.3,   0.00,   0.00, 1015.6,   71.6, -999.0
07-04-2023, 00:04:00,    298,    1.3,    4.2,   0.00,   0.00, 1015.6,   71.6, -999.0
07-04-2023, 00:04:09,    295,    0.7,    4.4,   0.00,   0.00, 1015.5,   71.6, -999.0
07-04-2023, 00:04:19,    298,    0.2,    4.3,   0.00,   0.00, 1015.6,   71.4, -999.0
07-04-2023, 00:04:30,    297,    0.1,    4.3,   0.00,   0.00, 1015.5,   71.2, -999.0
07-04-2023, 00:04:39,    298,    0.0,    4.2,   0.00,   0.00, 1015.5,   71.2, -999.0
07-04-2023, 00:04:49,    297,    0.0,    4.2,   0.00,   0.00, 1015.4,   71.0, -999.0
07-04-2023, 00:04:59,    298,    0.0,    4.2,   0.00,   0.00, 1015.4,   71.1, -999.0
07-04-2023, 00:05:10,    298,    0.0,    4.1,   0.00,   0.00, 1015.4,   71.2, -999.0
07-04-2023, 00:05:19,    297,    0.0,    4.2,   0.00,   0.00, 1015.4,   71.1, -999.0
07-04-2023, 00:05:29,    297,    0.0,    4.2,   0.00,   0.00, 1015.4,   71.1, -999.0
07-04-2023, 00:05:40,    305,    0.1,    4.2,   0.00,   0.00, 1015.4,   71.2, -999.0
07-04-2023, 00:05:49,    317,    1.1,    4.3,   0.00,   0.00, 1015.5,   71.6, -999.0
07-04-2023, 00:05:59,    320,    2.2,    4.3,   0.00,   0.00, 1015.5,   71.7, -999.0
07-04-2023, 00:06:09,    320,    0.7,    4.2,   0.00,   0.00, 1015.6,   71.8, -999.0
07-04-2023, 00:06:19,    321,    0.1,    4.2,   0.00,   0.00, 1015.5,   71.5, -999.0
07-04-2023, 00:06:29,    321,    0.0,    4.1,   0.00,   0.00, 1015.4,   71.4, -999.0
07-04-2023, 00:06:39,    320,    0.0,    4.1,   0.00,   0.00, 1015.4,   71.3, -999.0
07-04-2023, 00:06:49,    321,    0.1,    4.2,   0.00,   0.00, 1015.5,   71.5, -999.0
07-04-2023, 00:06:59,    320,    1.1,    4.2,   0.00,   0.00, 1015.6,   71.7, -999.0
07-04-2023, 00:07:09,    321,    0.4,    4.2,   0.00,   0.00, 1015.6,   71.7, -999.0
07-04-2023, 00:07:19,    321,    0.0,    4.2,   0.00,   0.00, 1015.5,   71.3, -999.0
07-04-2023, 00:07:29,    319,    0.0,    4.1,   0.00,   0.00, 1015.5,   71.3, -999.0
07-04-2023, 00:07:39,    318,    0.0,    4.2,   0.00,   0.00, 1015.5,   71.4, -999.0
07-04-2023, 00:07:49,    319,    0.0,    4.0,   0.00,   0.00, 1015.4,   71.4, -999.0
07-04-2023, 00:07:59,    316,    0.3,    4.2,   0.00,   0.00, 1015.6,   71.7, -999.0
07-04-2023, 00:08:09,    315,    0.7,    4.2,   0.00,   0.00, 1015.6,   71.7, -999.0
07-04-2023, 00:08:19,    315,    1.0,    4.3,   0.00,   0.00, 1015.6,   71.9, -999.0
07-04-2023, 00:08:29,    315,    1.5,    4.2,   0.00,   0.00, 1015.6,   71.8, -999.0
07-04-2023, 00:08:39,    315,    0.8,    4.4,   0.00,   0.00, 1015.6,   71.9, -999.0
07-04-2023, 00:08:49,    315,    0.3,    4.3,   0.00,   0.00, 1015.5,   71.9, -999.0
07-04-2023, 00:08:59,    315,    0.0,    4.1,   0.00,   0.00, 1015.5,   71.5, -999.0
07-04-2023, 00:09:09,    315,    0.0,    4.2,   0.00,   0.00, 1015.5,   71.5, -999.0
07-04-2023, 00:09:19,    315,    0.0,    4.2,   0.00,   0.00, 1015.5,   71.5, -999.0
07-04-2023, 00:09:29,    315,    0.3,    4.1,   0.00,   0.00, 1015.5,   71.7, -999.0
07-04-2023, 00:09:39,    313,    1.6,    4.3,   0.00,   0.00, 1015.6,   71.9, -999.0
07-04-2023, 00:09:49,    313,    0.7,    4.3,   0.00,   0.00, 1015.6,   71.9, -999.0
07-04-2023, 00:09:59,    313,    0.3,    4.3,   0.00,   0.00, 1015.6,   71.9, -999.0
07-04-2023, 00:10:09,    313,    0.0,    4.1,   0.00,   0.00, 1015.5,   71.5, -999.0
07-04-2023, 00:10:19,    313,    0.1,    4.3,   0.00,   0.00, 1015.5,   71.6, -999.0
07-04-2023, 00:10:29,    313,    0.0,    4.2,   0.00,   0.00, 1015.5,   71.6, -999.0
07-04-2023, 00:10:39,    313,    0.0,    4.1,   0.00,   0.00, 1015.5,   71.4, -999.0
07-04-2023, 00:10:49,    313,    0.0,    4.2,   0.00,   0.00, 1015.5,   71.5, -999.0
07-04-2023, 00:10:59,    312,    0.0,    4.1,   0.00,   0.00, 1015.5,   71.4, -999.0
07-04-2023, 00:11:09,    313,    0.0,    4.2,   0.00,   0.00, 1015.5,   71.4, -999.0
07-04-2023, 00:11:19,    312,    0.0,    4.1,   0.00,   0.00, 1015.5,   71.5, -999.0
07-04-2023, 00:11:29,    313,    0.0,    4.2,   0.00,   0.00, 1015.5,   71.4, -999.0
07-04-2023, 00:11:39,    312,    0.1,    4.2,   0.00,   0.00, 1015.6,   71.7, -999.0
07-04-2023, 00:11:49,    312,    0.0,    4.2,   0.00,   0.00, 1015.5,   71.5, -999.0
07-04-2023, 00:11:58,    313,    0.0,    4.2,   0.00,   0.00, 1015.5,   71.6, -999.0
07-04-2023, 00:12:09,    313,    0.0,    4.2,   0.00,   0.00, 1015.5,   71.7, -999.0
07-04-2023, 00:12:19,    310,    0.5,    4.2,   0.00,   0.00, 1015.6,   72.0, -999.0
07-04-2023, 00:12:29,    309,    0.5,    4.3,   0.00,   0.00, 1015.6,   71.9, -999.0
07-04-2023, 00:12:38,    304,    0.6,    4.3,   0.00,   0.00, 1015.6,   71.9, -999.0
07-04-2023, 00:12:49,    301,    0.8,    4.3,   0.00,   0.00, 1015.6,   71.9, -999.0
07-04-2023, 00:12:59,    301,    0.1,    4.2,   0.00,   0.00, 1015.5,   71.7, -999.0
07-04-2023, 00:13:08,    301,    0.0,    4.2,   0.00,   0.00, 1015.5,   71.5, -999.0
07-04-2023, 00:13:19,    302,    0.1,    4.1,   0.00,   0.00, 1015.6,   71.8, -999.0
07-04-2023, 00:13:29,    319,    1.6,    4.2,   0.00,   0.00, 1015.7,   72.1, -999.0
07-04-2023, 00:13:38,    318,    1.5,    4.3,   0.00,   0.00, 1015.7,   72.1, -999.0
07-04-2023, 00:13:48,    318,    1.2,    4.3,   0.00,   0.00, 1015.6,   72.0, -999.0
07-04-2023, 00:13:59,    318,    0.9,    4.2,   0.00,   0.00, 1015.7,   71.8, -999.0
07-04-2023, 00:14:09,    318,    0.2,    4.3,   0.00,   0.00, 1015.6,   71.8, -999.0
07-04-2023, 00:14:18,    313,    0.0,    4.1,   0.00,   0.00, 1015.5,   71.5, -999.0
07-04-2023, 00:14:28,    300,    0.4,    4.2,   0.00,   0.00, 1015.6,   71.7, -999.0
07-04-2023, 00:14:39,    300,    0.0,    4.2,   0.00,   0.00, 1015.5,   71.5, -999.0
07-04-2023, 00:14:48,    299,    0.0,    4.2,   0.00,   0.00, 1015.5,   71.7, -999.0
07-04-2023, 00:14:58,    299,    0.0,    4.2,   0.00,   0.00, 1015.5,   71.9, -999.0
07-04-2023, 00:15:08,    299,    0.0,    4.0,   0.00,   0.00, 1015.5,   71.8, -999.0
07-04-2023, 00:15:19,    300,    0.0,    4.1,   0.00,   0.00, 1015.5,   71.7, -999.0
07-04-2023, 00:15:28,    299,    0.0,    4.1,   0.00,   0.00, 1015.5,   71.7, -999.0
07-04-2023, 00:15:38,    299,    0.0,    4.1,   0.00,   0.00, 1015.5,   71.8, -999.0
07-04-2023, 00:15:48,    299,    0.0,    4.1,   0.00,   0.00, 1015.5,   71.8, -999.0
07-04-2023, 00:15:58,    296,    0.2,    4.2,   0.00,   0.00, 1015.6,   72.0, -999.0
07-04-2023, 00:16:08,    295,    0.0,    4.2,   0.00,   0.00, 1015.5,   71.7, -999.0
07-04-2023, 00:16:18,    296,    0.7,    4.2,   0.00,   0.00, 1015.6,   72.1, -999.0
07-04-2023, 00:16:28,    310,    0.8,    4.2,   0.00,   0.00, 1015.7,   72.2, -999.0
07-04-2023, 00:16:38,    310,    0.6,    4.2,   0.00,   0.00, 1015.6,   72.0, -999.0
07-04-2023, 00:16:48,    310,    0.3,    4.3,   0.00,   0.00, 1015.6,   72.2, -999.0
07-04-2023, 00:16:58,    276,    0.5,    4.2,   0.00,   0.00, 1015.6,   72.1, -999.0
07-04-2023, 00:17:08,    305,    1.4,    4.2,   0.00,   0.00, 1015.6,   72.2, -999.0
07-04-2023, 00:17:18,    305,    0.2,    4.2,   0.00,   0.00, 1015.6,   72.0, -999.0
07-04-2023, 00:17:28,    305,    0.0,    4.2,   0.00,   0.00, 1015.5,   71.9, -999.0
07-04-2023, 00:17:38,    306,    0.1,    4.2,   0.00,   0.00, 1015.5,   71.9, -999.0
07-04-2023, 00:17:48,    312,    1.0,    4.2,   0.00,   0.00, 1015.6,   72.2, -999.0
07-04-2023, 00:17:58,    312,    0.8,    4.2,   0.00,   0.00, 1015.6,   72.1, -999.0
07-04-2023, 00:18:08,    312,    0.7,    4.3,   0.00,   0.00, 1015.6,   72.2, -999.0
07-04-2023, 00:18:18,    312,    0.4,    4.1,   0.00,   0.00, 1015.6,   72.1, -999.0
07-04-2023, 00:18:28,    312,    0.1,    4.2,   0.00,   0.00, 1015.6,   72.2, -999.0
07-04-2023, 00:18:38,    312,    0.0,    4.1,   0.00,   0.00, 1015.5,   71.9, -999.0
07-04-2023, 00:18:48,    311,    0.0,    4.1,   0.00,   0.00, 1015.5,   71.8, -999.0
07-04-2023, 00:18:58,    312,    0.1,    4.1,   0.00,   0.00, 1015.6,   71.8, -999.0
07-04-2023, 00:19:08,    311,    0.7,    4.3,   0.00,   0.00, 1015.6,   72.1, -999.0
07-04-2023, 00:19:18,    311,    0.0,    4.2,   0.00,   0.00, 1015.5,   72.0, -999.0
07-04-2023, 00:19:28,    311,    0.4,    4.2,   0.00,   0.00, 1015.6,   72.2, -999.0
07-04-2023, 00:19:38,    311,    1.3,    4.3,   0.00,   0.00, 1015.6,   72.2, -999.0
07-04-2023, 00:19:48,    311,    0.9,    4.3,   0.00,   0.00, 1015.6,   72.2, -999.0
07-04-2023, 00:19:58,    311,    0.6,    4.2,   0.00,   0.00, 1015.6,   72.2, -999.0
07-04-2023, 00:20:08,    310,    0.1,    4.2,   0.00,   0.00, 1015.5,   72.0, -999.0
07-04-2023, 00:20:18,    310,    0.0,    4.2,   0.00,   0.00, 1015.5,   71.8, -999.0
07-04-2023, 00:20:28,    310,    0.0,    4.1,   0.00,   0.00, 1015.5,   71.7, -999.0
07-04-2023, 00:20:38,    342,    0.3,    4.1,   0.00,   0.00, 1015.5,   71.8, -999.0
07-04-2023, 00:20:48,    341,    0.2,    4.2,   0.00,   0.00, 1015.6,   71.9, -999.0
07-04-2023, 00:20:58,    342,    0.0,    4.1,   0.00,   0.00, 1015.5,   71.6, -999.0
07-04-2023, 00:21:08,    342,    0.0,    4.1,   0.00,   0.00, 1015.5,   71.6, -999.0
07-04-2023, 00:21:18,    342,    0.0,    4.1,   0.00,   0.00, 1015.5,   71.7, -999.0
07-04-2023, 00:21:28,    342,    0.0,    4.1,   0.00,   0.00, 1015.4,   71.9, -999.0
07-04-2023, 00:21:37,    337,    0.7,    4.1,   0.00,   0.00, 1015.6,   72.3, -999.0
07-04-2023, 00:21:48,    337,    0.4,    4.2,   0.00,   0.00, 1015.6,   72.5, -999.0
07-04-2023, 00:21:58,    337,    0.1,    4.3,   0.00,   0.00, 1015.6,   72.2, -999.0
07-04-2023, 00:22:08,    337,    0.0,    4.1,   0.00,   0.00, 1015.5,   72.0, -999.0
07-04-2023, 00:22:17,    337,    0.0,    4.1,   0.00,   0.00, 1015.5,   72.0, -999.0
07-04-2023, 00:22:28,    337,    0.0,    4.2,   0.00,   0.00, 1015.5,   72.0, -999.0
07-04-2023, 00:22:38,    337,    0.0,    4.1,   0.00,   0.00, 1015.5,   72.1, -999.0
07-04-2023, 00:22:47,    337,    0.0,    4.1,   0.00,   0.00, 1015.5,   72.1, -999.0
07-04-2023, 00:22:57,    337,    0.0,    4.0,   0.00,   0.00, 1015.5,   72.2, -999.0
07-04-2023, 00:23:08,    336,    0.0,    4.1,   0.00,   0.00, 1015.5,   72.0, -999.0
07-04-2023, 00:23:18,    337,    0.0,    3.9,   0.00,   0.00, 1015.4,   72.0, -999.0
07-04-2023, 00:23:27,    337,    0.0,    4.1,   0.00,   0.00, 1015.5,   72.1, -999.0
07-04-2023, 00:23:38,    337,    0.0,    4.0,   0.00,   0.00, 1015.5,   72.1, -999.0
07-04-2023, 00:23:48,    337,    0.0,    4.1,   0.00,   0.00, 1015.5,   72.2, -999.0
07-04-2023, 00:23:57,    337,    0.0,    4.1,   0.00,   0.00, 1015.5,   72.1, -999.0
07-04-2023, 00:24:07,    337,    0.3,    4.2,   0.00,   0.00, 1015.5,   72.4, -999.0
07-04-2023, 00:24:18,    336,    0.0,    4.1,   0.00,   0.00, 1015.5,   72.2, -999.0
07-04-2023, 00:24:28,    337,    0.2,    4.1,   0.00,   0.00, 1015.6,   72.4, -999.0
07-04-2023, 00:24:37,    337,    0.4,    4.2,   0.00,   0.00, 1015.6,   72.5, -999.0
07-04-2023, 00:24:47,    336,    0.1,    4.0,   0.00,   0.00, 1015.5,   72.3, -999.0
07-04-2023, 00:24:58,    336,    0.4,    4.1,   0.00,   0.00, 1015.6,   72.4, -999.0
07-04-2023, 00:25:07,    337,    0.6,    4.1,   0.00,   0.00, 1015.6,   72.4, -999.0
07-04-2023, 00:25:17,    336,    0.4,    4.2,   0.00,   0.00, 1015.6,   72.6, -999.0
07-04-2023, 00:25:27,    337,    0.0,    4.1,   0.00,   0.00, 1015.5,   72.2, -999.0
07-04-2023, 00:25:37,    337,    0.1,    4.2,   0.00,   0.00, 1015.6,   72.4, -999.0
07-04-2023, 00:25:47,    336,    0.3,    4.2,   0.00,   0.00, 1015.6,   72.5, -999.0
07-04-2023, 00:25:57,    336,    0.0,    4.1,   0.00,   0.00, 1015.5,   72.2, -999.0
07-04-2023, 00:26:07,    336,    0.0,    4.1,   0.00,   0.00, 1015.5,   72.3, -999.0
07-04-2023, 00:26:17,    336,    0.0,    4.1,   0.00,   0.00, 1015.5,   72.2, -999.0
07-04-2023, 00:26:27,    336,    0.0,    4.1,   0.00,   0.00, 1015.5,   72.1, -999.0
07-04-2023, 00:26:37,    315,    0.3,    4.1,   0.00,   0.00, 1015.5,   72.1, -999.0
07-04-2023, 00:26:47,    315,    0.4,    4.3,   0.00,   0.00, 1015.6,   72.4, -999.0
07-04-2023, 00:26:57,    315,    0.6,    4.1,   0.00,   0.00, 1015.6,   72.5, -999.0
07-04-2023, 00:27:07,    314,    0.3,    4.2,   0.00,   0.00, 1015.6,   72.4, -999.0
07-04-2023, 00:27:17,    313,    0.6,    4.2,   0.00,   0.00, 1015.6,   72.3, -999.0
07-04-2023, 00:27:27,    310,    1.3,    4.2,   0.00,   0.00, 1015.6,   72.5, -999.0
07-04-2023, 00:27:37,    310,    0.8,    4.2,   0.00,   0.00, 1015.6,   72.3, -999.0
07-04-2023, 00:27:47,    313,    0.0,    4.2,   0.00,   0.00, 1015.6,   72.0, -999.0
07-04-2023, 00:27:57,    314,    0.1,    4.1,   0.00,   0.00, 1015.5,   72.2, -999.0
07-04-2023, 00:28:07,    313,    1.4,    4.2,   0.00,   0.00, 1015.6,   72.3, -999.0
07-04-2023, 00:28:17,    313,    0.2,    4.2,   0.00,   0.00, 1015.6,   72.2, -999.0
07-04-2023, 00:28:27,    313,    0.5,    4.2,   0.00,   0.00, 1015.6,   72.3, -999.0
07-04-2023, 00:28:37,    321,    0.2,    4.2,   0.00,   0.00, 1015.6,   72.3, -999.0
07-04-2023, 00:28:47,    293,    0.4,    4.1,   0.00,   0.00, 1015.6,   72.2, -999.0
07-04-2023, 00:28:57,    303,    0.6,    4.2,   0.00,   0.00, 1015.6,   72.4, -999.0
07-04-2023, 00:29:07,    304,    0.2,    4.2,   0.00,   0.00, 1015.6,   72.3, -999.0
07-04-2023, 00:29:17,    303,    0.0,    4.1,   0.00,   0.00, 1015.5,   72.0, -999.0
07-04-2023, 00:29:27,    303,    0.0,    4.0,   0.00,   0.00, 1015.5,   72.1, -999.0
07-04-2023, 00:29:37,    304,    0.3,    4.1,   0.00,   0.00, 1015.6,   72.3, -999.0
07-04-2023, 00:29:47,    286,    0.5,    4.2,   0.00,   0.00, 1015.6,   72.5, -999.0
07-04-2023, 00:29:57,    287,    0.3,    4.1,   0.00,   0.00, 1015.6,   72.3, -999.0
07-04-2023, 00:30:07,    310,    0.9,    4.2,   0.00,   0.00, 1015.6,   72.4, -999.0
07-04-2023, 00:30:17,    296,    0.9,    4.2,   0.00,   0.00, 1015.6,   72.4, -999.0
07-04-2023, 00:30:27,    296,    0.5,    4.1,   0.00,   0.00, 1015.6,   72.4, -999.0
07-04-2023, 00:30:37,    296,    0.0,    4.0,   0.00,   0.00, 1015.5,   72.1, -999.0
07-04-2023, 00:30:47,    296,    0.0,    4.0,   0.00,   0.00, 1015.5,   72.1, -999.0
07-04-2023, 00:30:57,    296,    0.0,    4.1,   0.00,   0.00, 1015.5,   72.2, -999.0
07-04-2023, 00:31:07,    296,    0.0,    4.1,   0.00,   0.00, 1015.5,   72.3, -999.0
07-04-2023, 00:31:16,    296,    0.0,    4.1,   0.00,   0.00, 1015.5,   72.2, -999.0
07-04-2023, 00:31:27,    315,    0.2,    4.1,   0.00,   0.00, 1015.5,   72.4, -999.0
07-04-2023, 00:31:37,    315,    0.9,    4.2,   0.00,   0.00, 1015.6,   72.6, -999.0
07-04-2023, 00:31:46,    315,    0.6,    4.2,   0.00,   0.00, 1015.6,   72.4, -999.0
07-04-2023, 00:31:57,    315,    0.1,    4.1,   0.00,   0.00, 1015.6,   72.1, -999.0
07-04-2023, 00:32:07,    303,    0.8,    4.2,   0.00,   0.00, 1015.6,   72.5, -999.0
07-04-2023, 00:32:17,    303,    1.2,    4.2,   0.00,   0.00, 1015.6,   72.4, -999.0
07-04-2023, 00:32:26,    295,    1.7,    4.2,   0.00,   0.00, 1015.6,   72.5, -999.0
07-04-2023, 00:32:37,    315,    1.0,    4.2,   0.00,   0.00, 1015.7,   72.5, -999.0
07-04-2023, 00:32:47,    314,    0.3,    4.2,   0.00,   0.00, 1015.6,   72.5, -999.0
07-04-2023, 00:32:56,    314,    0.0,    4.0,   0.00,   0.00, 1015.5,   72.1, -999.0
07-04-2023, 00:33:06,    317,    0.1,    4.1,   0.00,   0.00, 1015.6,   72.3, -999.0
07-04-2023, 00:33:17,    308,    2.0,    4.2,   0.00,   0.00, 1015.7,   72.6, -999.0
07-04-2023, 00:33:26,    306,    1.3,    4.2,   0.00,   0.00, 1015.7,   72.5, -999.0
07-04-2023, 00:33:36,    320,    1.2,    4.1,   0.00,   0.00, 1015.7,   72.5, -999.0
07-04-2023, 00:33:46,    314,    2.4,    4.1,   0.00,   0.00, 1015.6,   72.3, -999.0
07-04-2023, 00:33:57,    284,    1.3,    4.2,   0.00,   0.00, 1015.6,   72.1, -999.0
07-04-2023, 00:34:06,    283,    0.3,    4.2,   0.00,   0.00, 1015.6,   72.0, -999.0
07-04-2023, 00:34:16,    307,    0.4,    4.1,   0.00,   0.00, 1015.6,   71.8, -999.0
07-04-2023, 00:34:27,    307,    0.2,    4.1,   0.00,   0.00, 1015.6,   71.9, -999.0
07-04-2023, 00:34:36,    344,    0.7,    4.2,   0.00,   0.00, 1015.6,   72.1, -999.0
07-04-2023, 00:34:46,    342,    0.3,    4.1,   0.00,   0.00, 1015.6,   72.0, -999.0
07-04-2023, 00:34:56,    344,    0.1,    4.1,   0.00,   0.00, 1015.6,   71.9, -999.0
07-04-2023, 00:35:07,    320,    0.6,    4.1,   0.00,   0.00, 1015.7,   72.1, -999.0
07-04-2023, 00:35:16,    271,    0.9,    4.2,   0.00,   0.00, 1015.7,   72.2, -999.0
07-04-2023, 00:35:26,    271,    0.7,    4.1,   0.00,   0.00, 1015.6,   72.3, -999.0
07-04-2023, 00:35:36,    319,    0.6,    4.0,   0.00,   0.00, 1015.6,   72.0, -999.0
07-04-2023, 00:35:46,    326,    2.8,    4.2,   0.00,   0.00, 1015.7,   72.4, -999.0
07-04-2023, 00:35:56,    327,    2.1,    4.1,   0.00,   0.00, 1015.7,   72.0, -999.0
07-04-2023, 00:36:06,    326,    0.8,    4.2,   0.00,   0.00, 1015.6,   71.9, -999.0
07-04-2023, 00:36:16,    326,    0.0,    4.2,   0.00,   0.00, 1015.6,   71.7, -999.0
07-04-2023, 00:36:26,    326,    0.0,    4.2,   0.00,   0.00, 1015.6,   71.9, -999.0
07-04-2023, 00:36:36,    326,    0.0,    4.1,   0.00,   0.00, 1015.6,   71.8, -999.0
07-04-2023, 00:36:46,    326,    0.0,    4.0,   0.00,   0.00, 1015.5,   71.7, -999.0
07-04-2023, 00:36:56,    326,    0.0,    4.0,   0.00,   0.00, 1015.5,   71.7, -999.0
07-04-2023, 00:37:06,    326,    0.0,    4.1,   0.00,   0.00, 1015.6,   71.7, -999.0
07-04-2023, 00:37:16,    326,    0.1,    4.1,   0.00,   0.00, 1015.6,   71.8, -999.0
07-04-2023, 00:37:26,    326,    0.0,    4.1,   0.00,   0.00, 1015.5,   71.6, -999.0
07-04-2023, 00:37:36,    326,    0.0,    4.0,   0.00,   0.00, 1015.5,   71.6, -999.0
07-04-2023, 00:37:46,    326,    0.0,    4.0,   0.00,   0.00, 1015.6,   71.7, -999.0
07-04-2023, 00:37:56,    326,    0.1,    4.0,   0.00,   0.00, 1015.6,   72.1, -999.0
07-04-2023, 00:38:06,    326,    0.0,    4.1,   0.00,   0.00, 1015.6,   71.9, -999.0
07-04-2023, 00:38:16,    325,    0.1,    4.0,   0.00,   0.00, 1015.6,   72.0, -999.0
07-04-2023, 00:38:26,    259,    0.6,    4.1,   0.00,   0.00, 1015.7,   72.2, -999.0
07-04-2023, 00:38:36,    264,    0.4,    4.1,   0.00,   0.00, 1015.6,   72.1, -999.0
07-04-2023, 00:38:46,    264,    0.0,    4.0,   0.00,   0.00, 1015.6,   71.9, -999.0
07-04-2023, 00:38:56,    264,    0.0,    4.0,   0.00,   0.00, 1015.6,   72.0, -999.0
07-04-2023, 00:39:06,    264,    0.0,    4.0,   0.00,   0.00, 1015.6,   72.1, -999.0
07-04-2023, 00:39:16,    264,    0.0,    4.1,   0.00,   0.00, 1015.6,   72.2, -999.0
07-04-2023, 00:39:26,    264,    0.0,    4.0,   0.00,   0.00, 1015.6,   72.2, -999.0
07-04-2023, 00:39:36,    264,    0.0,    4.1,   0.00,   0.00, 1015.6,   72.2, -999.0
07-04-2023, 00:39:46,    264,    0.0,    4.1,   0.00,   0.00, 1015.5,   72.3, -999.0
07-04-2023, 00:39:56,    264,    0.0,    4.0,   0.00,   0.00, 1015.5,   72.3, -999.0
07-04-2023, 00:40:06,    264,    0.0,    4.0,   0.00,   0.00, 1015.6,   72.2, -999.0
07-04-2023, 00:40:16,    264,    0.0,    4.1,   0.00,   0.00, 1015.6,   72.1, -999.0
07-04-2023, 00:40:26,    264,    0.0,    3.9,   0.00,   0.00, 1015.6,   72.1, -999.0
07-04-2023, 00:40:36,    264,    0.0,    4.0,   0.00,   0.00, 1015.6,   72.1, -999.0
07-04-2023, 00:40:45,    264,    0.0,    4.0,   0.00,   0.00, 1015.6,   72.2, -999.0
07-04-2023, 00:40:56,    264,    0.0,    4.0,   0.00,   0.00, 1015.6,   72.2, -999.0
07-04-2023, 00:41:06,    264,    0.0,    4.0,   0.00,   0.00, 1015.6,   72.2, -999.0
07-04-2023, 00:41:16,    263,    0.0,    4.0,   0.00,   0.00, 1015.6,   72.3, -999.0
07-04-2023, 00:41:25,    264,    0.0,    4.0,   0.00,   0.00, 1015.6,   72.4, -999.0
07-04-2023, 00:41:36,    264,    0.0,    4.0,   0.00,   0.00, 1015.6,   72.4, -999.0
07-04-2023, 00:41:46,    264,    0.0,    4.1,   0.00,   0.00, 1015.6,   72.2, -999.0
07-04-2023, 00:41:55,    277,    0.0,    4.0,   0.00,   0.00, 1015.6,   72.4, -999.0
07-04-2023, 00:42:06,    305,    0.7,    4.2,   0.00,   0.00, 1015.7,   72.6, -999.0
07-04-2023, 00:42:16,    306,    0.4,    4.2,   0.00,   0.00, 1015.8,   72.6, -999.0
07-04-2023, 00:42:25,    306,    0.1,    4.1,   0.00,   0.00, 1015.7,   72.4, -999.0
07-04-2023, 00:42:35,    309,    0.3,    4.0,   0.00,   0.00, 1015.7,   72.4, -999.0
07-04-2023, 00:42:46,    309,    0.3,    4.1,   0.00,   0.00, 1015.7,   72.3, -999.0
07-04-2023, 00:42:56,    308,    0.0,    4.0,   0.00,   0.00, 1015.7,   72.0, -999.0
07-04-2023, 00:43:05,    308,    0.0,    4.0,   0.00,   0.00, 1015.7,   72.0, -999.0
07-04-2023, 00:43:15,    308,    0.0,    4.0,   0.00,   0.00, 1015.7,   72.0, -999.0
07-04-2023, 00:43:26,    308,    0.0,    4.0,   0.00,   0.00, 1015.7,   72.0, -999.0
07-04-2023, 00:43:35,    308,    0.1,    4.0,   0.00,   0.00, 1015.7,   72.2, -999.0
07-04-2023, 00:43:45,    308,    0.0,    4.0,   0.00,   0.00, 1015.7,   72.3, -999.0
07-04-2023, 00:43:55,    308,    0.1,    4.1,   0.00,   0.00, 1015.8,   72.3, -999.0
07-04-2023, 00:44:06,    308,    0.4,    4.1,   0.00,   0.00, 1015.8,   72.4, -999.0
07-04-2023, 00:44:15,    306,    0.0,    4.1,   0.00,   0.00, 1015.7,   72.2, -999.0
07-04-2023, 00:44:25,    306,    0.0,    4.1,   0.00,   0.00, 1015.7,   72.0, -999.0
07-04-2023, 00:44:35,    306,    0.0,    4.1,   0.00,   0.00, 1015.6,   71.9, -999.0
07-04-2023, 00:44:45,    262,    1.0,    4.1,   0.00,   0.00, 1015.7,   72.2, -999.0
07-04-2023, 00:44:55,    262,    0.2,    4.1,   0.00,   0.00, 1015.7,   72.1, -999.0
07-04-2023, 00:45:05,    262,    0.0,    4.0,   0.00,   0.00, 1015.6,   72.0, -999.0
07-04-2023, 00:45:15,    319,    0.0,    4.0,   0.00,   0.00, 1015.6,   72.0, -999.0
07-04-2023, 00:45:25,    318,    0.3,    4.0,   0.00,   0.00, 1015.7,   72.1, -999.0
07-04-2023, 00:45:35,    319,    0.1,    4.0,   0.00,   0.00, 1015.7,   72.0, -999.0
07-04-2023, 00:45:45,    318,    0.1,    4.0,   0.00,   0.00, 1015.6,   72.2, -999.0
07-04-2023, 00:45:55,    319,    0.0,    3.9,   0.00,   0.00, 1015.6,   71.9, -999.0
07-04-2023, 00:46:05,    319,    0.0,    3.9,   0.00,   0.00, 1015.6,   72.1, -999.0
07-04-2023, 00:46:15,    318,    0.0,    4.0,   0.00,   0.00, 1015.6,   72.3, -999.0
07-04-2023, 00:46:25,    317,    0.4,    4.1,   0.00,   0.00, 1015.7,   72.5, -999.0
07-04-2023, 00:46:35,    316,    0.0,    4.0,   0.00,   0.00, 1015.6,   72.1, -999.0
07-04-2023, 00:46:45,    316,    0.0,    4.0,   0.00,   0.00, 1015.6,   72.2, -999.0